Regional Weather Roundup
Issued by NWS Albany, NY

Home | Current Version | Previous Version | Text Only | Print | Product List | Glossary On
Versions: 1 2 3 4 5 6 7 8 9 10 11 12 13 14 15 16 17 18 19 20 21 22 23 24 25 26 27 28 29 30 31 32 33 34 35 36 37 38 39 40 41 42 43 44 45 46 47 48 49 50
000
ASUS41 KALY 251810
RWRALY

NEW YORK STATE HOURLY WEATHER ROUNDUP
NATIONAL WEATHER SERVICE ALBANY NY
200 PM EDT MON JUL 25 2016

NOTE: "FAIR" INDICATES FEW OR NO CLOUDS BELOW 12,000 FEET WITH NO
SIGNIFICANT WEATHER AND/OR NO OBSTRUCTIONS TO VISIBILITY.

NYZ032-033-038>043-046>054-057>066-NYZ062>081-082-084-251900-
EAST


CITY           SKY/WX    TMP DP  RH WIND       PRES   REMARKS
ALBANY         LGT RAIN  81  69  67 W7        29.87S
GLENS FALLS    CLOUDY    82  68  62 S5        29.86F
POUGHKEEPSIE   CLOUDY    95  65  37 W9        29.85F HX  97
NEWBURGH       PTSUNNY   90  70  51 SW6       29.89F HX  95
MONTGOMERY     HVY RAIN  74  71  91 NW20G40   29.94R VSB 1
WHITE PLAINS   MOSUNNY   88  72  58 SE10      29.88F HX  94
ISLIP          PTSUNNY   86  72  62 SW16      29.90F HX  92
NEW YORK CITY  MOSUNNY   92  72  51 SE8       29.87F HX  99
CENTRAL PARK   SUNNY     93  71  48 S3        29.90F HX 100
$$

NYZ005>009-017-018-044>046-055-056-251900-
CENTRAL


CITY           SKY/WX    TMP DP  RH WIND       PRES   REMARKS
FULTON         MOSUNNY   78  71  79 CALM      29.84F
SYRACUSE       PTSUNNY   79  70  74 S7        29.84F
ROME           PTSUNNY   76  71  85 CALM      29.87F
ELMIRA         CLOUDY    85  68  56 SE5       29.87F
BINGHAMTON     MOSUNNY   77  70  79 VRB5      29.93F
MONTICELLO     CLOUDY    70  70 100 SE3       29.98F THUNDER
$$

NYZ026>034-041>043-087-251900-
NORTH


CITY           SKY/WX    TMP DP  RH WIND       PRES   REMARKS
WATERTOWN      PTSUNNY   75  69  81 S7        29.80F
FORT DRUM      NOT AVBL
MASSENA        CLOUDY    79  68  69 SW15      29.78F
SARANAC LAKE   CLOUDY    73  65  75 SW12      29.87F
PLATTSBURGH    LGT RAIN  76  69  79 CALM      29.81F
$$

NYZ001>004-010>016-019>021-085-251900-
WEST


CITY           SKY/WX    TMP DP  RH WIND       PRES   REMARKS
NIAGARA FALLS  PTSUNNY   80  73  79 SW16      29.85F
BUFFALO        PTSUNNY   75  71  87 SW15      29.88S
DUNKIRK        CLOUDY    73  71  93 SW9       29.89R
JAMESTOWN      CLOUDY    70  66  88 SW10      29.98R THUNDER
WELLSVILLE     TSTM      69  66  90 NW7       30.01R VSB 1
ROCHESTER      LGT RAIN  75  73  93 SW10G18   29.85F
PENN YAN       RAIN      79  70  74 W10       29.92R
$$

             KEY
       WCI = WIND CHILL INDEX
       VSB = VISIBILITY
       HX  = HEAT INDEX
$$



USA.gov is the U.S. government's official web portal to all federal, state and local government web resources and services.